Zurück zum Katalog

SL-14 DEB

AktivPO
NORAD 45313·DEBRIS·🇷🇺 Russia

Gestartet Aug 15, 1991 von Plesetsk Cosmodrome

Loading…

Nächste Überflüge (nächste 24 Stunden)

TLE

AktuellSource: Space-Track

Epoche: Sep 14, 2026, 06:51 UTC

1 45313U 91056BB  26257.28594384  .00001112  00000-0  18333-2 0  9997
2 45313  82.5780   9.3785 0092583 288.3035  70.8048 13.44676061320567

Verfolge SL-14 DEB in Echtzeit mit AllMySat

Download on the App Store